GFSMW_500_spd_087.txt.gz
Wind_Speed
34 32 32 31 35 32 32 35 31 27 25 24 26 24 24 24 23 24 21 24 24 25 28 28 27 24 27 25 27 37 41 42 37 32 29 30 30 34 31 32 33 34 33
36 34 32 36 35 33 35 36 30 28 22 25 23 22 24 22 23 23 22 25 28 32 34 36 35 31 30 28 29 28 36 39 41 31 30 29 31 31 33 33 35 35 33
34 32 34 39 35 35 34 33 29 29 25 27 22 21 22 23 23 22 24 27 29 33 35 36 36 33 31 28 26 30 30 38 39 39 38 31 36 36 36 33 38 38 35
34 35 38 39 38 35 32 33 32 31 28 27 22 21 21 24 21 21 24 24 26 24 27 31 33 32 34 33 35 28 30 33 38 38 41 35 35 38 36 35 36 37 35
35 37 40 41 41 37 36 34 34 34 29 29 24 21 20 22 19 22 20 20 17 16 18 21 28 32 30 41 34 36 28 28 36 38 36 34 36 35 33 36 35 33 32
34 37 40 42 47 46 41 36 36 36 31 31 27 21 21 20 18 21 19 13 14 13 13 15 21 33 31 36 31 38 37 33 38 38 34 29 32 32 33 35 35 36 33
32 34 38 37 42 49 37 34 38 38 37 34 27 21 22 19 20 18 16 9 10 11 11 10 13 17 31 31 38 38 40 33 42 43 31 27 26 30 29 30 27 27 30
24 24 26 32 37 35 37 36 40 39 34 34 25 22 22 19 19 15 13 10 8 7 10 9 10 8 24 29 34 41 39 41 46 44 38 29 28 31 30 27 31 30 32
20 17 21 26 30 34 32 38 37 37 35 31 25 23 22 21 20 13 11 9 8 8 4 6 6 8 9 22 25 36 40 37 44 39 29 17 20 21 23 26 28 29 27
25 21 22 25 31 31 34 35 36 36 31 29 23 23 23 23 22 14 10 9 8 7 7 6 5 8 9 11 20 29 24 35 38 34 24 28 26 26 28 31 32 31 28
27 28 31 28 31 32 36 36 37 31 30 26 21 22 23 24 23 17 13 10 10 10 10 8 6 6 9 11 11 10 14 25 27 26 18 21 25 28 30 30 30 31 31
28 30 31 35 35 39 42 43 33 30 31 29 24 21 22 24 23 19 17 14 12 10 8 10 10 11 9 11 12 15 17 23 21 17 20 22 23 25 26 27 25 26 26
31 32 33 37 41 47 48 43 36 35 34 29 24 22 20 23 23 23 20 19 17 15 12 10 9 11 13 14 14 15 16 20 23 20 22 23 22 22 24 24 23 25 28
31 37 39 41 41 42 40 31 32 37 39 34 29 23 21 22 25 26 25 24 22 20 18 15 14 11 9 10 12 14 16 18 19 21 21 21 20 22 24 24 24 27 29
31 41 42 43 44 48 44 37 29 41 39 36 29 24 24 26 27 30 28 26 25 23 22 22 20 15 16 16 15 16 17 19 21 20 20 21 23 22 23 24 26 29 30
28 42 45 44 46 48 42 34 34 41 40 35 34 30 30 27 27 30 30 28 28 27 26 25 24 22 23 22 22 23 23 21 21 22 23 24 25 26 28 30 32 35 35
26 39 44 45 44 39 35 35 38 44 42 39 37 37 35 31 28 30 30 30 31 33 32 31 29 28 27 27 27 27 27 27 26 27 29 30 31 32 33 34 36 39 43
18 34 40 44 44 42 43 42 40 39 46 44 40 42 39 36 34 33 34 34 29 26 32 36 33 31 29 30 30 30 30 30 31 32 33 35 38 39 40 42 43 45 47
11 33 36 38 44 46 42 42 39 43 47 45 44 45 44 41 40 40 38 34 30 26 33 35 38 35 32 31 32 32 33 34 35 36 37 39 40 43 45 47 49 52 53
16 13 42 46 51 36 41 40 46 46 49 49 48 49 44 43 41 39 43 36 38 35 37 32 33 33 33 33 35 35 36 38 40 43 44 46 48 50 52 54 55 57 58
15 19 15 16 43 38 39 41 35 39 48 55 53 59 47 43 40 42 50 48 55 46 42 36 37 38 38 37 39 41 42 44 45 48 50 51 51 53 55 56 58 60 61
24 23 24 23 25 39 48 48 49 49 49 48 47 64 41 50 47 45 55 52 48 40 40 39 46 48 47 46 47 47 46 47 48 49 51 52 55 57 58 60 62 62 63
24 23 25 25 23 23 27 37 55 62 61 55 53 48 48 51 59 61 53 47 55 56 57 53 51 52 55 49 47 47 47 46 47 50 53 55 57 60 62 62 64 64 65
25 23 21 25 26 28 28 29 26 28 47 60 59 64 62 62 58 60 59 60 65 65 65 55 51 48 45 42 40 42 45 47 50 53 56 59 60 61 64 64 65 67 69
14 16 18 19 21 24 26 27 30 31 29 34 35 37 34 39 41 38 45 47 41 36 37 35 32 32 34 36 40 47 49 52 55 56 57 59 61 62 64 66 68 71 73
15 17 19 23 27 24 23 21 23 24 24 27 26 25 25 25 24 24 27 27 28 29 31 32 33 36 39 43 48 51 53 54 56 57 59 60 62 65 68 70 72 74 75

GFSMW_500_spd_090.txt.gz
Wind_Speed
44 42 42 40 37 38 40 36 25 29 32 32 28 27 27 24 23 25 22 22 23 25 23 23 24 24 24 24 26 23 24 35 41 39 42 31 31 35 31 31 32 33 31
43 43 42 39 38 39 43 30 26 31 29 30 25 29 26 20 22 24 20 21 24 26 26 28 31 32 32 29 24 26 25 38 39 38 38 31 26 29 28 29 26 27 29
43 43 42 42 40 43 43 32 28 30 29 26 30 29 23 20 20 21 18 22 24 28 31 32 35 37 36 35 33 28 25 40 38 44 40 37 27 30 30 29 29 28 30
44 42 41 42 39 41 40 35 32 32 30 26 33 26 23 18 20 19 19 22 25 28 28 28 31 35 35 36 36 31 30 33 38 37 42 39 32 32 34 34 32 32 31
38 38 40 40 39 40 41 37 36 32 31 28 33 27 22 19 18 18 19 21 24 25 24 23 22 22 28 32 35 32 38 35 32 30 34 37 37 37 34 33 36 35 35
36 37 39 39 40 42 42 39 41 33 32 30 33 30 22 18 16 18 19 21 22 23 21 19 17 19 15 28 36 35 37 38 32 32 33 36 30 35 37 32 32 36 34
32 33 36 38 39 40 41 45 42 37 33 31 32 30 24 19 17 19 18 20 20 19 16 16 16 16 18 24 35 39 37 40 34 30 33 33 32 32 30 32 31 26 28
30 31 33 35 37 34 40 44 30 40 35 33 32 31 24 20 18 18 17 20 18 18 14 14 16 15 18 18 36 32 33 40 37 34 37 32 32 32 26 30 31 26 24
26 27 27 26 26 33 41 23 25 37 36 36 37 32 21 22 18 20 16 21 18 17 15 10 10 12 11 10 26 31 36 40 30 36 37 36 36 29 27 28 28 28 25
23 24 22 20 23 25 20 23 33 35 36 37 35 32 25 20 19 22 18 21 18 16 12 11 10 10 9 6 17 26 33 37 37 36 35 39 31 25 17 18 21 22 24
22 26 23 21 20 21 24 27 34 36 40 41 34 30 21 21 21 22 20 21 18 16 13 11 12 11 9 9 6 14 25 27 29 30 35 31 25 25 25 24 24 26 28
23 26 25 26 27 25 27 30 32 32 39 37 32 27 22 20 22 21 22 21 19 17 15 15 14 12 9 8 8 7 8 18 23 24 31 32 27 23 21 26 28 29 30
24 26 27 27 34 29 30 30 34 37 36 31 30 27 24 20 21 21 22 22 22 19 17 13 11 11 11 10 9 13 13 15 17 17 20 25 24 24 25 28 27 26 27
17 23 27 28 33 34 32 36 41 39 39 34 31 28 26 20 21 21 21 23 23 21 20 18 13 11 10 12 14 13 14 17 22 25 26 24 25 26 27 26 24 25 26
21 22 25 30 35 37 38 42 47 46 39 35 32 31 28 22 21 24 24 25 26 26 24 24 21 19 18 16 14 14 14 15 18 22 25 25 23 24 25 24 24 27 29
23 25 26 33 38 38 42 45 42 31 39 38 31 33 32 27 26 27 27 26 28 28 27 26 26 25 25 22 21 19 18 18 19 20 22 23 23 24 25 26 28 28 30
19 26 24 31 41 42 42 33 36 40 30 27 37 35 33 32 30 30 29 28 29 30 31 31 30 30 30 29 28 27 27 26 26 26 27 28 29 29 30 32 34 35 36
15 19 24 28 42 48 44 44 42 38 37 35 32 37 38 36 35 35 34 31 29 32 34 33 33 34 36 35 34 34 33 33 33 33 33 33 34 35 37 38 39 40 41
11 18 17 32 36 45 45 41 45 37 35 35 36 38 44 42 40 40 39 37 35 35 36 39 33 30 34 39 40 39 37 36 37 36 35 36 38 39 39 40 42 43 45
15 16 11 26 34 46 43 42 40 42 41 41 39 39 47 47 46 44 43 42 41 41 39 40 39 33 35 36 42 42 41 40 38 38 38 38 40 43 45 46 47 48 49
17 16 14 11 32 37 37 41 43 47 44 44 47 50 47 45 46 47 46 45 45 41 41 42 44 40 38 40 42 45 44 42 41 43 44 45 46 48 48 50 51 51 52
19 20 19 19 17 27 46 47 47 55 40 46 50 57 44 48 50 58 65 52 49 43 44 48 50 57 51 46 50 47 47 47 48 48 49 50 50 50 51 52 52 53 54
18 19 20 21 19 21 16 22 24 38 48 50 52 56 55 55 55 56 63 64 61 53 56 58 64 64 48 54 56 54 56 55 55 55 53 52 52 50 51 53 54 55 57
17 16 18 19 17 16 17 17 21 19 29 34 41 52 48 50 47 59 67 51 55 65 64 69 66 63 59 59 62 68 69 65 63 61 54 48 46 48 52 56 59 61 62
10 9 9 9 10 11 13 17 20 23 27 29 30 31 35 57 64 64 71 66 65 56 57 57 59 55 52 50 48 46 43 43 42 41 42 43 47 51 55 60 64 65 67
7 8 11 11 13 15 16 17 10 12 14 20 26 30 33 34 32 33 35 37 38 37 35 37 37 36 33 33 33 35 36 37 40 43 47 51 55 59 62 65 67 68 70

GFSMW_500_spd_093.txt.gz
Wind_Speed
48 49 46 46 46 42 41 42 39 38 36 35 37 34 27 29 29 24 26 25 26 23 22 21 24 24 23 20 20 20 25 26 23 33 45 40 41 34 33 33 34 35 33
42 39 41 39 40 39 39 45 41 40 35 35 38 35 29 30 26 24 23 24 24 24 23 23 25 26 28 28 27 26 25 22 27 32 45 43 39 34 28 31 33 34 33
32 49 43 33 36 38 38 43 43 40 36 36 39 36 36 28 24 24 21 22 21 22 23 24 28 31 33 34 35 33 30 29 25 30 44 41 38 33 28 29 32 33 33
40 37 43 36 39 41 41 39 42 37 34 37 36 39 34 26 24 23 20 20 20 22 24 27 29 28 30 34 35 35 33 31 25 27 43 37 37 36 34 32 34 36 35
36 32 35 37 42 42 41 39 41 39 36 39 38 40 33 26 24 22 19 19 21 23 24 25 25 25 27 30 31 34 33 34 26 27 35 38 37 38 40 36 35 37 37
21 32 31 35 35 36 35 35 39 40 38 39 38 40 32 29 26 21 18 20 21 22 23 24 25 25 21 20 19 29 32 34 32 28 36 40 37 42 41 38 34 35 35
14 29 30 32 34 33 34 37 38 42 40 39 41 38 32 32 27 23 18 20 21 20 21 21 22 21 23 20 21 20 30 30 33 35 38 30 28 34 36 33 35 39 38
20 25 26 30 32 33 33 34 41 43 37 40 42 37 34 32 28 24 18 21 20 18 21 21 22 21 23 21 23 25 22 31 34 37 33 37 35 31 34 32 34 34 34
20 23 29 29 30 31 34 42 42 43 36 36 42 36 35 31 28 23 19 21 18 17 22 20 21 20 19 19 25 22 35 38 36 40 35 37 39 34 31 31 34 34 30
25 24 26 28 28 31 31 29 33 39 32 33 39 40 36 33 28 25 20 21 18 17 20 19 19 18 16 17 17 17 26 32 34 37 38 42 39 35 36 28 19 28 27
23 22 25 30 27 26 24 23 26 27 26 29 40 42 37 31 29 23 21 20 20 17 18 18 18 18 15 13 14 8 23 25 32 35 39 37 40 36 34 24 19 18 19
19 22 27 29 26 24 21 22 27 33 29 30 39 39 34 33 27 23 21 20 22 18 17 19 17 17 16 12 12 10 14 21 29 35 36 36 34 33 24 22 22 27 27
17 17 23 27 29 26 25 25 27 29 31 31 35 37 33 34 27 21 19 20 22 18 18 17 15 15 14 13 9 9 7 13 18 26 31 34 32 31 29 24 22 22 28
14 14 18 24 26 24 27 28 27 27 30 31 32 34 38 30 30 23 19 17 22 19 18 19 18 19 15 13 10 10 11 12 16 19 21 21 23 31 39 32 27 27 31
15 15 15 21 27 27 27 32 30 31 32 31 33 36 35 30 31 25 20 19 22 23 21 20 21 20 20 19 16 12 11 15 17 21 24 24 24 26 28 28 29 28 28
17 17 17 18 23 25 29 34 32 32 33 36 37 35 32 33 35 30 25 23 24 24 25 23 23 25 25 24 23 21 18 16 16 21 25 26 30 29 29 29 30 29 30
15 16 16 19 19 26 33 34 36 39 38 40 42 40 39 37 39 33 31 30 27 27 26 27 27 27 28 29 28 27 26 25 23 21 23 26 27 29 29 31 32 32 34
15 16 15 20 24 21 33 38 39 40 37 35 36 30 46 38 30 32 34 34 33 30 29 27 27 29 32 31 32 32 33 32 32 32 32 31 30 31 32 33 35 36 37
16 15 13 17 15 22 34 40 42 41 38 38 36 31 35 40 39 35 35 36 36 35 34 33 31 29 30 32 34 33 38 39 38 38 38 39 39 39 39 40 41 42 43
20 17 13 14 13 31 26 30 43 43 40 40 38 32 35 40 38 40 40 40 40 39 39 39 37 36 34 36 38 37 38 40 42 44 44 43 43 43 44 45 46 42 47
18 17 14 9 10 19 29 30 40 37 47 42 37 41 41 40 40 45 45 46 46 44 44 44 44 43 42 39 39 41 43 42 39 41 49 48 45 46 47 50 49 49 53
14 13 14 14 11 11 26 28 32 45 34 39 37 41 44 48 41 55 56 55 52 51 49 49 49 48 49 44 47 47 57 50 45 50 45 50 51 52 54 55 56 57 57
14 11 10 12 13 13 15 22 32 26 45 39 40 45 56 54 51 48 50 52 51 54 55 55 54 57 57 51 55 59 63 56 54 54 60 58 58 59 61 60 59 57 55
12 12 12 12 12 12 14 16 17 15 14 17 22 31 40 48 50 55 57 60 63 66 63 62 67 68 69 69 64 64 63 71 68 60 63 70 67 68 70 69 62 62 59
12 12 10 8 6 6 4 3 5 8 11 15 18 22 25 30 35 41 41 46 45 49 47 49 50 52 53 56 56 61 66 64 59 57 58 57 51 48 47 48 48 48 48
7 8 9 8 7 3 1 5 4 10 8 9 14 18 21 24 27 27 30 34 36 39 38 40 43 43 49 51 55 49 45 44 42 40 40 41 42 43 44 46 48 50 55

GFSMW_500_spd_099.txt.gz
Wind_Speed
45 46 48 49 51 51 51 54 56 52 51 49 47 44 42 39 41 39 39 34 36 30 29 27 27 25 25 25 25 24 21 20 20 19 28 31 27 28 27 39 36 35 33
49 52 50 52 56 54 51 53 53 52 49 49 47 44 39 39 41 40 43 38 35 30 28 29 26 25 26 26 26 25 24 23 23 22 25 25 27 27 30 40 39 37 34
48 48 48 48 56 54 55 55 55 53 51 48 48 43 43 42 43 39 40 37 31 32 27 29 26 26 27 27 28 27 27 28 28 29 29 27 26 30 25 41 42 38 35
48 46 46 53 56 49 53 52 51 52 51 49 47 44 42 39 35 37 37 39 35 31 25 29 27 26 29 30 31 31 31 33 33 35 34 33 32 28 31 43 44 39 37
46 46 48 46 47 44 51 50 51 46 45 41 42 44 42 40 38 39 40 40 35 27 27 30 29 28 30 32 33 33 32 31 31 33 37 36 36 33 32 45 45 43 44
40 37 32 33 32 37 42 50 43 44 41 42 38 44 42 41 40 40 42 40 32 27 29 32 31 30 29 34 33 30 29 30 30 33 35 35 36 34 34 41 45 43 46
38 33 29 30 28 35 33 38 46 36 34 36 34 42 42 45 45 43 45 36 32 30 31 35 32 32 29 35 31 28 26 26 27 30 33 38 36 33 31 41 47 44 40
38 38 23 28 23 28 32 33 44 44 35 34 39 43 47 46 43 46 39 35 35 35 34 34 33 32 29 34 30 26 25 25 25 28 26 33 35 33 29 38 40 38 34
30 30 26 29 20 24 26 29 33 40 42 43 43 42 43 46 44 41 38 35 37 38 35 34 33 31 29 34 27 27 24 23 24 27 31 25 32 33 32 31 35 38 39
28 25 27 25 20 22 31 28 35 34 37 39 40 39 43 45 42 39 41 39 41 40 36 35 32 31 28 32 27 26 26 25 27 27 30 36 31 34 34 36 33 35 37
20 19 23 23 22 26 21 26 29 33 33 36 39 37 42 47 43 42 43 42 43 38 36 35 32 30 28 28 24 25 26 26 23 29 37 28 38 34 29 33 31 35 33
19 19 20 23 22 23 27 25 28 28 32 33 33 30 34 45 40 42 44 44 41 38 36 34 30 31 30 26 23 22 22 21 17 21 31 37 40 35 36 35 35 39 36
14 16 13 20 25 21 25 26 27 28 32 29 27 23 26 36 48 45 43 43 41 35 35 35 31 32 32 26 22 19 17 15 16 19 26 34 35 36 37 38 36 34 37
14 18 19 20 23 20 24 25 24 22 22 22 22 21 24 29 36 46 37 43 40 37 36 34 33 33 32 27 24 18 13 13 10 14 17 31 32 38 37 38 40 39 36
7 11 14 16 17 20 27 27 25 25 25 22 21 22 24 25 31 40 34 40 40 38 37 36 34 32 31 29 25 20 14 14 9 10 10 13 29 29 34 33 37 37 34
7 7 10 12 20 20 23 29 28 27 26 26 24 22 24 26 32 30 34 39 41 38 38 34 33 33 31 30 26 23 19 16 14 12 9 8 18 26 26 23 27 35 37
9 10 8 8 13 18 19 22 28 27 28 24 24 21 23 24 28 29 32 37 38 38 38 34 34 31 32 32 27 25 23 20 18 16 14 12 14 19 25 23 24 25 29
8 9 11 12 12 13 18 22 22 26 25 21 17 20 20 24 24 30 35 38 38 39 41 39 36 32 32 33 32 29 27 26 24 22 20 19 20 21 24 28 29 31 31
8 9 11 12 12 17 17 19 20 20 22 21 22 28 19 29 28 32 34 36 35 36 43 49 45 37 39 33 32 32 31 30 30 29 27 23 22 25 28 30 31 33 38
10 9 12 14 15 15 20 18 23 21 23 27 28 29 37 39 37 30 30 32 33 39 43 48 49 45 40 41 39 39 36 32 33 32 31 30 29 27 30 36 38 40 41
8 9 11 14 17 17 18 18 22 27 24 26 27 32 32 34 30 33 28 35 33 30 33 31 33 41 43 44 45 44 42 38 37 37 37 36 35 35 37 39 41 45 48
10 10 11 12 15 16 17 21 20 25 28 31 29 36 36 42 36 35 40 37 44 41 32 30 37 43 41 45 46 49 47 45 45 45 44 45 45 46 46 47 43 47 51
15 14 12 13 15 15 17 20 24 22 24 31 36 38 40 40 34 38 42 41 42 36 40 39 40 44 42 44 52 55 52 53 52 53 52 53 53 55 53 55 57 54 54
14 15 15 14 14 16 18 19 21 22 21 21 25 33 32 33 34 38 43 41 46 48 46 44 48 48 47 48 52 55 62 60 60 61 56 58 59 61 60 61 64 69 65
12 13 15 14 15 17 18 19 19 21 21 21 23 25 25 27 28 32 36 38 44 45 43 48 46 48 49 50 57 59 59 58 61 63 64 64 65 67 65 70 71 73 80
11 13 14 13 13 15 17 17 20 18 15 13 14 15 14 13 16 18 21 22 25 28 31 33 36 38 42 44 46 47 50 55 58 59 59 62 64 67 69 70 67 69 72

GFSMW_500_spd_105.txt.gz
Wind_Speed
46 47 48 49 50 52 54 57 60 62 62 60 60 61 60 49 46 43 43 45 44 43 43 43 39 40 34 27 22 21 22 21 23 20 19 17 17 25 23 17 18 21 31
43 43 43 45 47 49 50 53 55 58 60 60 60 62 61 53 48 45 46 47 48 45 44 42 37 41 34 26 24 22 23 20 22 21 19 19 19 18 27 26 29 27 22
42 44 46 47 48 48 48 51 54 55 54 55 57 58 59 58 54 49 45 46 48 47 44 43 40 41 33 28 27 23 23 21 21 20 21 21 20 23 25 26 25 23 21
45 48 49 51 52 52 53 55 56 55 54 56 58 57 52 53 53 47 46 48 46 48 46 43 40 42 38 29 29 26 23 24 22 23 23 23 26 27 25 26 26 24 26
48 51 53 54 54 55 56 58 58 59 57 57 59 59 55 52 55 49 46 50 50 50 46 44 44 44 44 30 31 27 25 25 23 24 25 25 28 32 31 31 31 31 30
48 50 51 51 51 54 56 57 59 60 61 60 59 60 58 53 56 50 47 48 49 50 45 47 48 47 41 31 32 29 27 27 24 25 27 27 28 30 31 33 35 35 33
47 48 49 51 52 54 54 50 53 56 59 57 56 59 56 51 54 51 47 47 50 47 41 47 43 45 49 36 34 31 28 28 26 26 28 28 25 27 29 31 33 36 36
49 49 49 48 43 42 38 39 42 46 47 49 51 53 51 50 52 49 48 48 48 47 47 45 47 43 47 38 35 34 29 28 28 27 29 29 26 29 31 32 32 35 37
51 52 47 41 39 44 39 37 34 35 39 38 43 44 44 50 50 46 51 44 47 43 50 49 52 51 48 38 37 37 31 28 27 29 30 32 29 31 33 34 32 33 35
48 45 42 41 39 29 28 27 30 28 31 31 35 43 46 49 49 50 45 49 51 55 55 50 51 49 44 37 39 38 32 29 29 30 31 33 31 32 33 34 34 36 30
41 40 42 31 23 20 22 22 21 22 23 32 32 40 48 56 54 49 49 44 48 53 46 49 53 49 42 41 40 40 34 30 31 31 31 32 33 34 36 36 38 40 38
32 30 27 24 25 21 19 20 18 19 24 29 29 40 42 38 36 44 54 48 46 45 46 51 52 48 47 43 42 40 34 33 32 31 30 31 34 36 36 35 36 39 38
23 24 23 15 19 15 21 13 15 21 16 15 19 27 35 38 39 41 42 44 40 42 46 51 52 49 47 45 41 38 36 34 33 32 30 30 33 33 35 33 36 39 41
17 19 15 10 6 6 11 19 15 15 18 15 13 25 36 41 36 37 40 41 45 48 50 50 49 48 47 48 40 37 37 34 33 32 31 29 29 29 30 35 39 39 41
12 12 6 6 3 4 8 11 20 12 13 11 10 15 18 25 30 34 40 42 44 42 49 47 43 48 48 48 38 34 35 32 33 32 31 29 30 26 28 29 26 28 35
13 7 3 3 3 5 3 6 11 15 12 12 7 13 20 19 15 12 19 24 38 37 45 48 47 46 50 45 37 34 34 32 33 32 32 29 31 29 25 27 25 30 33
11 4 4 4 5 3 5 6 7 7 16 13 14 12 12 12 13 13 11 11 25 42 43 47 46 53 45 43 36 35 34 32 34 32 34 31 30 30 27 24 22 31 37
4 5 4 4 4 4 4 3 5 7 12 18 17 16 16 16 14 12 11 16 22 24 35 37 42 36 39 38 36 35 33 32 34 34 32 34 31 31 30 27 23 23 23
5 4 3 3 4 4 3 2 4 8 10 15 18 18 20 17 18 14 26 28 23 33 25 27 33 36 36 38 38 35 37 37 33 32 32 33 32 31 32 31 27 22 27
5 4 3 4 4 4 5 4 2 3 8 12 16 22 23 16 21 21 19 27 28 33 23 28 33 32 34 38 39 37 38 39 36 36 33 32 30 29 29 31 33 30 27
4 3 3 2 3 4 6 6 4 3 4 9 12 20 22 21 20 19 17 30 25 33 31 34 29 33 35 37 40 38 35 40 42 43 44 42 36 35 34 33 32 31 33
5 3 3 4 4 5 5 8 8 6 5 8 8 16 20 22 21 26 20 20 28 31 25 25 29 36 37 38 39 38 41 40 38 40 49 49 43 42 41 41 40 41 39
4 2 4 6 6 7 8 8 9 12 11 9 9 12 13 14 20 26 26 26 30 28 28 29 37 37 39 37 43 42 40 36 40 38 37 47 50 54 51 49 50 49 49
2 4 5 7 8 10 11 11 11 10 13 14 14 15 14 15 15 18 24 28 33 35 37 37 34 38 37 38 42 45 46 41 42 43 43 41 44 43 43 47 50 51 52
5 6 5 4 7 8 10 12 13 14 13 13 15 17 17 16 18 19 20 23 27 30 30 32 37 39 41 43 45 45 47 50 51 49 50 50 51 52 52 51 51 52 53
6 8 10 13 13 11 10 11 11 13 15 15 16 16 16 17 18 19 20 21 22 23 25 28 32 36 38 40 42 43 45 48 51 53 55 55 56 57 59 60 59 58 59

GFSMW_500_spd_108.txt.gz
Wind_Speed
45 46 47 48 49 50 51 53 56 57 59 60 60 59 58 56 56 56 49 49 51 52 47 42 46 41 39 37 37 31 30 27 25 22 21 22 23 22 18 22 32 25 26
43 43 44 45 44 44 45 46 47 50 53 56 57 58 58 58 57 56 56 50 52 54 52 44 47 43 41 38 37 31 31 29 27 21 22 21 22 20 19 17 28 20 23
41 41 42 42 42 42 43 44 46 48 49 51 54 57 57 57 56 57 56 52 48 50 52 51 47 45 42 40 38 34 32 30 27 23 24 22 21 23 21 19 20 27 31
42 43 43 43 44 45 45 46 48 50 52 54 55 55 57 56 54 56 53 50 49 47 52 52 48 46 44 43 40 38 33 32 27 27 26 27 22 23 23 24 21 24 24
44 44 45 45 47 47 49 50 52 53 55 58 60 59 57 56 56 57 54 49 49 48 53 52 50 47 46 44 45 42 37 34 29 28 28 28 27 25 26 29 29 29 28
42 44 46 49 49 49 50 50 51 52 54 58 61 62 61 59 59 58 54 51 49 46 48 51 51 46 46 46 45 47 42 37 30 29 28 30 29 26 27 30 32 33 33
40 42 44 46 48 49 49 50 53 54 58 60 62 63 59 58 60 59 56 51 51 48 45 50 52 48 49 44 46 48 45 40 33 31 30 31 28 27 28 29 29 31 34
39 41 44 47 48 49 51 53 55 58 53 55 58 59 57 52 53 58 56 51 53 49 47 53 50 46 49 47 46 50 51 38 33 30 31 31 29 27 29 29 27 28 32
42 44 45 47 48 51 51 51 48 47 42 43 41 41 42 44 46 48 49 49 51 48 46 51 52 51 46 47 49 53 55 45 33 30 31 31 30 30 28 31 31 29 31
44 46 48 48 50 51 46 43 43 37 37 39 40 37 37 39 43 46 49 48 49 49 48 47 52 55 53 47 50 50 45 32 34 31 33 32 31 30 31 32 34 35 33
47 48 48 50 48 42 39 39 34 32 32 31 29 29 34 35 44 43 46 50 50 50 46 48 52 54 49 49 45 46 42 34 34 35 34 32 32 31 32 32 35 36 37
48 47 48 42 38 35 34 27 27 14 23 23 18 21 29 39 35 40 43 51 52 52 47 51 50 51 48 49 48 44 38 38 40 37 34 32 35 32 32 34 35 36 38
48 44 37 31 32 29 25 25 19 22 19 18 21 23 25 30 36 43 46 51 49 50 46 47 49 52 51 52 46 47 41 42 42 37 36 34 35 33 33 34 31 33 35
39 30 31 30 24 18 16 15 19 15 14 14 9 13 19 22 37 41 46 55 56 48 48 44 46 48 49 51 46 46 42 45 41 40 36 34 35 34 33 34 29 31 35
26 27 26 23 16 11 5 10 11 16 13 12 8 10 11 22 24 30 26 33 36 41 49 51 48 49 51 47 51 47 46 45 43 37 36 33 34 33 35 34 30 30 32
20 24 18 11 8 3 5 7 9 13 15 13 14 19 17 18 25 24 32 28 31 37 39 40 40 43 44 45 40 41 42 47 47 37 34 35 35 33 36 33 31 30 32
9 16 9 3 3 5 5 7 9 12 15 14 18 12 9 14 20 21 22 27 28 29 34 34 38 38 42 40 42 41 47 52 48 37 34 37 34 34 36 34 33 28 29
8 9 3 3 4 6 5 4 7 8 9 17 18 15 8 15 15 15 15 14 14 21 35 41 35 43 41 41 48 39 45 52 41 37 35 36 34 34 36 35 33 31 28
9 8 3 4 5 4 5 3 4 6 9 11 18 18 15 14 12 13 17 16 14 15 18 33 37 42 42 45 58 54 43 47 39 38 36 35 35 34 35 36 36 32 29
8 6 4 5 4 4 4 3 4 5 6 12 12 16 20 17 18 18 17 22 18 18 21 20 30 26 30 33 43 48 48 46 40 39 36 35 35 34 36 36 36 34 31
8 7 5 4 3 4 5 4 2 2 2 3 12 13 16 17 19 19 21 24 23 17 34 30 27 32 33 33 36 35 38 40 40 41 39 39 39 38 39 39 38 37 34
7 7 5 3 3 3 4 5 4 3 2 3 5 10 13 19 19 21 25 17 17 27 29 28 40 36 36 36 36 36 40 40 42 43 42 42 42 45 45 47 46 46 44
5 4 3 2 2 3 5 6 6 7 6 3 4 7 10 11 11 15 19 22 20 18 23 29 33 37 38 37 41 41 41 43 44 43 42 43 45 43 43 46 50 56 46
5 3 3 3 4 7 8 10 11 11 13 12 10 7 8 11 13 15 16 19 24 26 23 29 30 30 30 37 46 51 46 48 50 51 42 43 41 45 49 46 45 49 55
7 5 4 1 2 5 8 11 13 14 16 16 16 17 16 13 13 15 17 20 20 21 24 29 36 36 39 38 38 43 45 45 53 54 45 46 49 50 52 52 51 51 49
10 9 8 6 6 7 7 8 10 13 16 18 20 21 21 21 21 18 18 18 20 22 23 24 26 28 31 35 38 41 44 44 45 47 50 51 52 54 56 58 57 57 59

GFSMW_500_spd_114.txt.gz
Wind_Speed
51 56 50 43 40 43 45 47 47 48 48 50 51 52 53 53 53 54 54 53 55 49 48 47 45 40 43 43 48 48 46 40 39 39 36 36 31 30 30 29 28 28 28
53 56 54 42 43 43 42 43 45 47 48 49 49 51 52 53 53 53 53 53 53 53 50 48 45 43 42 45 45 50 47 44 41 41 37 35 33 30 32 30 29 27 25
60 57 49 48 47 44 41 41 42 44 46 47 48 49 49 51 53 53 54 55 53 55 55 51 48 48 43 45 46 49 50 45 44 44 40 37 33 32 33 32 30 28 27
58 53 52 51 48 49 44 43 43 44 45 46 47 49 49 50 51 51 51 51 50 51 51 48 46 49 46 47 47 48 49 48 49 44 40 38 38 34 33 33 32 29 28
43 43 46 46 46 46 45 45 45 45 46 47 47 48 48 50 51 51 52 50 50 49 50 48 48 47 48 47 50 49 50 51 51 44 41 41 40 38 35 33 32 29 31
39 44 43 43 45 45 46 46 45 45 45 46 47 47 48 49 51 52 54 54 55 54 53 53 53 49 46 47 48 51 51 53 53 49 45 42 41 40 37 37 34 30 28
32 35 38 41 43 44 45 46 45 44 45 45 46 48 50 51 52 55 56 57 59 60 58 58 56 54 49 47 50 52 51 52 54 51 46 45 45 40 39 39 36 33 31
31 35 39 41 42 43 44 43 43 43 43 43 44 46 49 51 53 56 58 60 62 62 62 61 60 57 52 52 51 52 51 52 53 54 51 44 50 42 42 41 38 35 35
46 43 43 42 41 41 41 42 43 44 44 45 47 49 51 53 57 60 63 64 65 66 66 65 62 63 56 56 55 53 50 51 52 53 50 51 50 48 48 42 39 37 34
48 35 34 36 38 40 41 42 44 45 46 48 52 53 56 60 61 63 62 62 63 66 71 73 71 65 60 57 55 53 51 53 53 52 52 49 49 47 43 38 43 40 36
31 37 39 39 39 40 41 43 45 47 49 52 54 56 59 61 56 49 50 47 47 54 56 58 65 69 62 57 55 52 49 53 52 53 53 49 44 49 32 46 44 42 37
34 37 36 37 39 41 43 46 48 51 53 55 57 57 54 47 45 43 44 42 39 42 45 46 52 57 56 57 53 52 51 52 50 50 47 42 43 41 42 40 42 42 40
35 39 38 40 43 47 49 52 54 55 55 55 49 40 34 37 39 33 30 30 34 42 47 48 46 48 52 50 51 52 51 50 52 47 43 43 41 42 44 42 46 43 41
37 40 44 47 50 53 55 58 54 50 46 40 34 29 28 31 31 26 24 23 21 27 40 51 45 44 47 54 51 52 51 51 49 44 45 47 44 42 47 46 43 43 43
44 45 48 51 53 52 50 40 33 28 32 29 26 29 22 15 13 19 30 20 23 20 16 40 41 42 41 43 45 48 49 49 49 46 46 46 41 37 32 40 47 44 43
49 50 48 42 35 29 20 23 25 15 16 17 23 23 26 22 26 20 22 15 19 19 17 27 36 30 33 41 40 44 47 49 43 45 46 42 40 36 38 45 47 43 41
48 39 31 21 13 11 14 14 11 15 12 11 16 16 18 19 20 15 17 16 18 13 16 20 33 37 41 45 46 44 44 44 46 45 40 39 38 36 37 34 42 43 43
28 20 14 13 11 11 8 10 13 9 8 9 6 8 15 19 12 11 11 12 11 21 22 15 17 25 37 44 45 44 44 46 47 44 36 47 45 41 46 43 40 42 45
14 11 6 7 5 5 4 6 7 2 5 6 7 11 9 14 18 10 11 8 13 14 23 27 20 20 20 22 26 32 38 40 37 37 41 40 44 48 42 45 47 41 48
8 9 5 4 2 3 5 3 3 4 7 4 7 9 12 9 12 11 9 5 8 7 11 15 21 31 30 26 32 29 40 45 42 45 36 49 43 40 46 48 48 44 48
10 5 3 1 1 2 3 1 1 6 7 6 6 7 7 6 7 6 6 9 9 11 11 11 11 11 27 33 33 40 45 48 45 38 48 47 48 52 49 48 44 47 50
8 7 6 3 4 6 6 7 11 11 11 11 10 10 12 14 13 9 5 4 5 6 6 11 16 14 17 21 26 41 45 53 59 50 53 57 53 53 56 58 58 57 54
10 9 10 9 9 10 9 11 12 11 13 14 15 16 16 16 15 14 14 13 13 8 8 9 8 9 12 17 24 29 28 32 37 39 40 42 47 51 49 51 50 47 48
13 12 11 12 11 11 12 12 12 12 13 14 15 15 16 18 19 19 18 15 13 12 13 17 17 14 13 16 22 26 27 33 34 36 38 40 40 41 48 48 50 50 49
13 12 11 10 10 11 13 12 12 12 11 12 14 16 16 17 19 22 23 23 22 20 18 17 17 20 23 24 23 22 25 27 30 32 37 40 44 46 49 50 51 54 56
11 11 10 10 9 10 10 12 14 15 16 17 19 21 23 25 27 29 27 25 24 24 24 24 23 22 23 22 25 31 34 34 34 33 33 35 39 43 48 49 52 55 60

GFSMW_500_spd_117.txt.gz
Wind_Speed
58 63 60 60 59 56 43 47 47 46 45 44 46 49 51 52 53 53 52 49 46 50 46 48 44 43 47 48 48 48 45 42 41 40 35 32 30 31 29 31 33 34 31
56 57 64 60 62 59 43 48 47 45 46 45 46 48 50 50 51 52 52 52 51 50 50 53 55 47 54 54 50 51 48 45 43 42 40 37 31 29 30 33 32 32 32
51 53 64 60 56 50 45 50 47 46 45 46 46 46 48 49 50 51 52 52 52 51 52 51 51 51 52 59 54 50 52 51 47 44 42 39 35 32 32 33 33 34 36
54 53 52 49 42 41 49 50 50 47 46 46 47 47 47 48 48 48 49 50 52 51 52 53 51 50 51 52 54 58 50 49 52 49 44 43 40 35 34 35 34 36 36
53 50 41 35 31 39 45 44 45 45 45 46 46 47 48 48 48 48 49 50 52 52 52 53 53 52 52 52 54 49 54 56 56 52 47 47 44 41 34 36 35 36 34
53 50 41 33 35 38 41 42 43 45 46 47 46 46 47 47 48 49 50 51 52 52 52 53 54 54 54 53 52 53 56 57 57 53 52 49 47 42 38 39 40 38 37
54 54 53 37 42 40 41 43 45 45 46 46 46 46 47 48 48 50 51 51 51 53 53 55 56 56 57 54 53 55 56 57 57 55 54 51 49 45 45 43 44 39 41
47 50 54 42 39 40 42 44 45 45 46 46 46 46 47 47 48 49 50 51 52 53 56 57 59 60 60 59 58 59 58 57 56 54 53 51 50 49 47 45 45 42 41
49 46 45 38 38 39 43 47 46 44 43 42 42 44 44 45 46 48 50 52 54 56 58 61 62 63 64 62 61 60 61 60 54 53 51 51 51 52 51 47 48 44 42
27 33 38 43 50 51 51 48 45 44 43 43 43 44 45 48 50 53 55 58 60 62 63 65 68 69 69 66 65 64 58 59 54 50 51 49 52 53 52 48 48 46 46
42 44 45 46 44 46 40 39 41 43 44 45 46 48 50 53 56 57 59 62 64 66 69 64 63 68 72 70 68 65 63 60 53 51 52 53 53 51 51 46 40 46 52
39 33 39 43 39 36 38 39 42 43 45 47 49 51 53 55 57 60 61 62 54 49 47 48 49 52 55 55 62 67 66 58 52 52 54 53 51 51 43 42 42 37 42
31 41 46 41 39 40 40 40 42 45 49 52 55 57 61 61 57 53 49 42 37 37 42 46 46 45 45 44 46 52 55 60 53 53 52 49 52 48 44 44 42 50 36
34 38 39 42 44 44 43 44 48 51 53 55 55 51 46 43 39 38 37 36 31 38 31 35 35 38 45 45 44 46 48 51 54 55 53 52 50 46 44 45 42 38 40
38 39 40 41 42 44 46 49 51 51 40 28 25 24 24 23 28 25 21 26 35 29 22 19 25 34 39 37 39 39 46 49 54 56 53 50 49 47 47 44 39 39 42
44 45 45 45 46 47 48 45 30 20 17 17 14 15 14 20 19 30 35 31 27 29 25 16 23 19 26 37 41 40 44 49 50 51 50 48 46 44 43 43 38 40 29
48 49 48 46 41 33 20 14 14 16 16 12 14 13 6 5 11 15 17 21 22 20 11 12 11 10 11 16 36 30 38 42 45 47 47 46 47 46 48 42 42 41 32
45 44 41 29 18 14 13 11 14 13 9 8 11 15 10 8 11 18 13 12 14 17 20 14 5 13 24 27 24 26 26 29 39 43 43 44 44 44 43 41 40 40 37
30 22 13 10 9 10 8 8 5 2 6 6 6 5 2 5 9 9 11 6 7 17 13 18 17 12 16 23 25 29 37 36 36 37 41 43 41 42 42 43 39 40 39
8 8 7 7 8 7 6 4 7 8 7 8 11 9 7 4 3 5 2 4 4 2 1 15 21 15 18 16 18 29 33 32 39 42 41 37 40 37 48 49 49 41 43
7 7 7 7 8 7 10 14 13 13 15 17 17 17 16 14 14 10 8 6 4 4 3 3 4 15 21 28 28 27 27 30 39 32 37 52 46 46 54 49 52 47 47
8 8 10 10 9 12 11 12 14 13 12 15 17 17 15 16 17 18 20 16 12 8 6 7 4 4 7 12 22 39 41 40 42 47 47 45 42 42 53 55 51 50 53
10 10 9 7 11 13 12 12 13 12 13 14 16 16 16 17 16 17 17 16 17 18 17 12 10 7 6 5 11 16 19 28 31 32 36 39 45 52 51 52 55 55 57
11 12 10 13 13 12 11 12 12 13 13 15 15 16 17 19 19 20 20 20 19 17 15 16 18 21 20 11 7 10 17 20 23 26 30 35 39 37 38 46 45 47 48
15 14 13 12 12 12 12 13 13 13 14 15 16 18 19 21 22 23 24 23 22 20 19 18 18 18 18 19 25 27 25 20 20 20 24 29 36 42 44 45 47 50 50
14 12 12 11 9 7 7 9 10 11 13 16 19 22 23 24 26 28 28 28 26 24 23 22 22 22 22 22 22 23 24 27 30 33 35 35 34 32 32 33 37 41 45

GFSMW_500_spd_120.txt.gz
Wind_Speed
57 75 70 66 65 63 53 48 47 47 51 53 52 50 50 50 51 52 51 50 48 45 48 49 47 46 48 43 41 43 48 48 47 48 46 45 41 36 34 30 30 29 27
61 65 60 66 71 69 65 59 48 48 47 53 53 51 50 49 49 51 50 49 49 49 51 52 51 50 44 48 43 42 45 50 51 50 45 45 44 36 33 32 32 32 29
56 57 56 60 65 63 56 50 46 45 45 51 49 50 50 51 51 50 51 51 51 51 51 52 52 52 48 48 44 47 48 47 49 50 44 47 44 40 40 36 33 34 32
62 62 64 55 55 54 48 45 43 40 44 50 50 49 49 49 50 50 50 52 53 52 53 53 53 53 53 51 48 49 47 44 57 47 47 45 47 41 41 40 35 36 36
50 53 53 56 48 49 46 45 46 46 43 51 50 50 50 50 50 51 51 51 53 54 53 53 53 52 53 54 54 53 52 51 53 52 47 51 41 42 44 41 38 37 38
43 46 51 48 49 52 52 48 43 41 43 47 48 49 50 50 50 51 51 52 54 55 57 57 57 57 56 57 56 55 55 55 53 57 54 56 49 46 46 46 40 39 38
41 35 38 43 49 52 52 45 43 41 46 46 45 48 50 51 52 52 52 52 53 55 56 57 57 57 58 58 57 57 57 56 57 59 60 59 60 59 52 52 48 43 40
38 36 35 47 59 53 51 53 46 46 44 45 46 49 51 52 52 52 52 52 53 54 56 57 58 57 57 58 60 60 60 60 58 61 60 62 62 58 56 55 54 47 44
38 33 37 47 53 53 59 58 56 55 45 43 47 52 54 52 52 51 51 51 52 53 54 56 58 59 59 59 61 63 62 63 61 63 60 57 59 62 57 56 56 51 46
21 24 26 27 43 48 47 47 50 49 50 57 57 53 50 49 47 47 49 50 51 52 54 55 57 58 60 62 64 64 64 62 63 64 62 60 59 56 56 55 55 55 47
36 33 35 39 30 31 39 45 46 50 55 54 49 45 44 44 45 47 49 50 52 54 55 57 59 62 64 67 69 69 69 69 67 66 63 60 58 53 51 55 54 53 47
40 39 38 38 39 41 40 42 47 47 44 36 41 43 46 49 51 53 54 54 54 56 56 59 61 65 69 73 75 77 81 80 78 72 64 60 56 53 53 55 52 46 46
40 40 36 40 43 44 46 51 51 46 41 42 45 48 51 53 55 56 58 61 62 63 66 68 68 64 58 54 54 57 57 63 62 70 72 61 53 49 49 51 49 47 45
37 31 34 40 48 49 47 46 43 44 47 48 51 53 54 57 60 61 63 64 65 63 58 52 45 40 38 41 47 53 52 49 55 57 66 60 54 49 49 50 52 47 47
40 42 41 39 44 45 46 44 44 45 46 48 50 52 42 31 27 25 26 29 29 34 34 33 31 34 40 38 42 44 44 46 44 48 52 57 57 50 50 54 50 47 48
35 42 40 39 40 40 41 42 43 43 44 41 29 27 21 20 18 21 20 17 29 28 29 27 29 34 27 26 26 35 34 41 50 48 47 50 54 51 52 52 48 49 45
43 44 45 44 43 42 42 40 37 30 23 22 23 24 19 22 17 9 10 17 14 16 21 19 25 21 19 15 12 17 26 29 38 41 44 47 48 50 53 48 46 47 44
48 49 48 47 44 40 33 23 19 16 12 14 14 17 17 20 12 8 12 12 14 13 12 18 19 11 12 12 9 12 16 25 29 35 34 35 41 47 47 47 47 44 42
41 40 39 37 27 15 13 12 10 7 5 3 3 4 5 3 6 7 10 10 9 9 8 14 17 17 10 7 5 14 18 10 12 20 46 42 46 44 45 47 47 47 48
25 23 16 10 10 8 9 8 7 5 6 9 13 16 17 15 14 12 8 8 4 3 4 4 12 13 10 9 11 15 11 22 22 24 25 29 42 45 45 47 48 49 44
11 9 10 9 7 7 9 11 17 16 14 15 17 18 19 18 18 21 22 18 10 8 6 2 2 5 13 17 15 12 20 21 26 35 34 34 33 40 43 49 53 47 45
10 9 9 7 7 9 10 17 18 17 12 12 15 16 17 17 18 18 19 18 19 22 23 16 10 5 2 5 10 25 26 25 22 30 30 31 40 36 41 46 49 50 51
9 8 5 6 9 14 16 15 16 13 11 12 14 17 17 18 19 21 20 20 19 17 17 15 18 23 20 10 5 4 8 14 19 25 32 38 43 40 44 45 48 52 50
9 10 12 14 16 16 16 13 12 11 12 13 14 15 16 16 18 18 20 21 21 20 17 16 16 15 14 19 22 24 17 11 8 12 14 19 25 26 26 26 29 35 46
14 17 16 14 14 14 14 13 11 9 7 9 12 15 17 19 20 21 23 24 23 24 23 21 19 18 19 18 19 20 20 21 25 30 28 24 22 23 24 28 32 34 36
16 14 13 14 13 11 9 7 3 2 5 8 12 18 20 22 24 25 26 26 25 23 21 21 21 21 22 22 23 23 24 24 25 25 25 27 28 31 33 34 34 33 33

GFSMW_500_spd_123.txt.gz
Wind_Speed
71 72 73 75 77 77 74 68 61 57 56 56 59 59 54 54 55 56 55 56 58 51 49 50 50 48 31 64 53 54 52 51 50 46 46 49 48 42 38 36 38 37 37
65 68 72 71 72 71 69 61 52 52 52 53 53 56 55 54 56 57 56 56 59 55 51 48 50 49 43 47 41 37 44 44 48 47 54 52 51 48 42 35 38 37 39
55 55 56 61 62 60 58 60 57 51 44 47 52 58 54 57 58 56 56 58 58 55 50 49 51 48 44 46 46 44 43 48 46 50 50 63 50 50 49 37 38 39 36
44 42 47 57 66 60 57 60 56 49 47 45 54 51 50 56 59 56 55 57 59 58 51 50 50 51 50 49 51 50 51 47 51 40 57 43 43 42 41 40 43 40 37
42 43 45 51 62 56 63 53 53 47 45 46 43 40 45 54 59 57 56 56 57 60 57 49 51 51 52 51 52 53 53 50 50 51 42 45 49 47 45 49 41 41 35
39 40 43 43 41 43 45 50 50 47 43 37 38 41 46 54 59 55 56 56 56 56 60 56 53 52 52 52 52 53 54 54 53 50 48 49 50 46 46 42 46 36 36
34 38 37 38 41 41 43 46 51 53 47 46 41 44 47 48 51 54 56 55 55 57 59 62 60 57 57 56 56 57 58 55 55 55 53 52 54 54 47 48 44 41 40
29 29 39 42 45 37 38 36 45 45 50 47 44 42 39 37 38 41 50 55 56 57 58 60 61 60 58 57 56 57 58 60 60 58 57 58 61 59 52 51 53 51 50
19 24 16 30 26 44 40 43 59 51 44 49 46 43 46 48 46 47 55 59 54 56 57 58 60 61 61 59 58 58 58 60 60 60 61 60 59 59 58 54 53 51 53
34 31 28 33 18 18 23 28 30 37 52 54 54 55 50 51 54 57 55 53 51 52 54 56 57 59 61 61 60 59 58 59 61 61 60 59 60 60 58 56 54 52 48
42 46 49 43 36 35 33 34 28 27 34 35 41 43 46 48 46 42 42 44 46 49 51 52 54 56 57 59 59 58 58 59 59 61 60 59 59 61 60 57 56 55 56
44 46 46 41 39 37 41 34 36 41 38 40 44 48 49 46 44 44 44 43 44 47 51 54 55 56 56 57 58 58 60 62 64 65 66 62 62 63 62 58 58 54 53
40 42 44 38 33 35 39 39 45 49 45 41 39 41 43 47 48 48 49 50 51 50 51 52 55 57 57 58 59 60 62 65 67 68 71 71 70 67 66 63 60 55 53
39 37 34 33 34 36 34 36 38 40 40 42 40 39 43 48 51 53 57 57 58 61 62 61 60 60 61 61 62 62 67 68 69 69 66 68 70 69 71 73 66 56 52
38 33 32 32 34 33 32 35 35 34 38 39 40 46 51 54 55 52 45 43 38 37 39 44 51 61 65 64 62 65 61 55 52 53 53 57 60 62 62 63 64 57 53
40 37 36 36 37 36 37 39 36 35 37 40 43 44 45 41 33 29 31 30 31 29 25 30 28 22 29 37 36 40 43 47 55 56 51 50 56 59 54 55 59 59 54
44 45 44 43 43 43 42 41 39 37 37 36 36 33 32 32 27 24 28 20 17 21 19 16 21 20 21 23 29 36 39 39 38 35 35 42 42 42 47 50 54 54 53
49 49 48 48 47 45 42 39 35 32 27 22 22 16 15 17 18 17 11 12 14 11 11 7 8 14 14 17 20 19 19 19 28 29 24 28 37 39 41 48 52 52 51
37 38 36 34 33 31 25 19 14 13 14 12 5 6 9 10 11 12 11 6 8 9 4 5 3 6 9 13 2 6 11 11 16 21 23 19 29 39 40 44 45 49 54
20 21 22 21 17 10 10 10 9 10 10 10 11 9 12 16 18 17 12 16 14 13 15 16 12 2 7 7 5 6 9 10 8 12 14 22 26 31 40 40 46 46 41
20 17 10 8 8 9 7 8 9 12 18 16 14 13 13 14 15 17 18 18 20 25 27 23 17 18 14 7 8 7 7 8 10 10 14 15 26 22 32 37 41 45 49
14 11 8 6 6 5 6 8 19 20 19 14 12 12 12 13 15 16 17 21 21 18 19 19 20 24 25 18 12 1 13 18 19 17 16 22 25 25 26 36 33 36 39
10 6 7 7 6 6 9 18 18 17 16 12 10 9 10 12 13 15 18 20 20 20 19 17 16 16 16 16 22 22 15 3 6 15 19 21 30 29 37 39 39 43 38
6 7 8 9 10 11 17 18 17 14 13 9 6 7 9 11 14 16 19 20 20 20 19 16 14 13 13 13 14 14 15 19 24 24 17 13 12 22 30 39 42 41 43
8 8 13 13 13 15 14 14 14 12 6 2 2 6 10 14 17 21 23 24 22 20 20 18 16 16 17 17 16 16 17 18 17 18 18 20 27 29 24 21 22 25 31
11 15 16 14 14 13 14 13 9 5 4 6 8 10 14 17 22 25 27 28 26 24 21 18 17 17 18 19 20 19 19 20 21 21 22 24 25 26 27 30 32 33 32

GFSMW_500_spd_126.txt.gz
Wind_Speed
61 63 65 68 70 72 73 74 74 75 73 67 67 64 61 61 60 60 64 66 61 57 59 60 57 54 54 50 51 50 50 52 55 66 61 51 47 51 50 54 47 42 38
65 67 68 69 71 73 73 70 68 68 59 56 55 52 58 60 63 62 62 66 67 63 59 61 59 57 57 53 55 51 53 40 48 58 59 51 42 46 49 50 52 48 44
65 66 63 62 58 54 53 52 54 55 56 54 51 52 53 59 61 62 63 63 66 67 63 60 63 60 57 54 54 53 46 45 45 40 39 49 38 37 49 52 52 52 54
54 55 54 50 47 45 48 58 62 63 57 56 56 54 54 54 53 56 53 60 64 68 66 62 61 60 57 54 53 54 48 44 37 56 49 52 46 51 45 50 38 59 52
46 45 45 45 44 44 47 46 49 56 62 61 59 46 47 47 50 51 45 48 56 64 67 66 64 60 56 54 53 55 52 48 48 51 49 47 52 51 49 32 38 39 30
39 38 35 38 40 42 39 40 40 41 42 43 40 46 41 44 40 36 40 39 45 49 56 59 58 59 57 53 54 54 52 52 51 52 50 50 49 48 45 40 39 34 33
45 40 38 31 35 33 35 38 35 37 41 41 37 43 44 42 38 39 35 37 44 47 45 52 57 57 56 53 51 53 52 51 51 52 51 49 47 46 45 45 45 42 35
41 35 28 29 29 36 34 42 41 35 36 41 36 41 46 42 41 41 35 33 35 39 45 45 45 54 57 58 55 55 56 56 55 54 53 52 50 48 48 47 48 49 47
39 36 34 36 32 26 22 24 30 39 43 44 42 44 46 44 44 38 40 40 41 43 50 55 53 52 55 59 60 57 57 57 57 56 55 54 53 52 52 50 49 50 50
37 36 39 39 38 41 36 35 29 23 27 35 38 37 35 41 49 36 40 42 48 48 50 51 49 48 50 57 61 59 58 58 58 58 58 56 54 54 53 55 54 50 51
36 37 38 40 42 42 44 47 47 37 33 37 32 28 28 31 33 38 45 50 49 40 41 41 43 46 48 51 56 60 57 57 58 58 59 59 58 55 54 55 57 57 53
35 37 37 39 41 41 43 43 43 44 43 42 41 39 35 36 43 46 46 42 44 44 47 48 46 45 47 52 53 55 56 56 56 56 55 55 58 57 55 55 56 55 51
38 37 38 39 41 42 40 41 43 41 42 42 42 46 43 44 42 43 40 42 45 48 51 52 52 52 51 49 51 54 56 56 55 55 55 55 56 56 56 57 58 58 58
41 40 40 40 35 34 34 36 37 35 35 34 33 32 32 34 36 40 41 44 48 53 57 57 58 57 56 56 54 54 56 56 55 56 56 57 57 58 60 61 63 63 62
42 42 40 35 32 30 29 31 30 29 30 30 30 28 30 34 35 39 43 46 43 39 38 37 35 35 42 50 55 58 57 56 57 57 56 58 61 63 65 66 65 66 69
39 39 39 39 38 37 36 34 32 30 31 29 29 28 31 32 34 35 33 31 32 38 37 35 33 34 34 35 36 46 56 56 56 59 61 59 61 60 55 54 52 53 69
43 44 44 45 44 42 41 39 37 35 32 28 25 25 21 21 22 22 25 29 29 28 28 30 30 27 25 27 24 24 31 40 47 51 51 46 47 52 54 52 52 55 59
37 36 36 39 39 38 35 33 31 29 25 19 12 9 8 7 6 5 4 5 12 18 17 13 9 8 8 11 20 18 20 25 30 35 39 37 35 29 33 36 38 52 53
27 26 26 30 29 27 26 23 19 16 13 7 4 5 8 8 6 6 7 7 8 7 10 11 15 16 5 4 7 5 10 13 11 10 18 28 25 29 32 31 40 37 40
27 25 25 26 25 18 13 10 9 9 7 6 10 14 8 9 14 14 15 16 18 10 13 16 17 18 18 11 7 3 6 13 14 8 13 20 24 25 26 31 33 35 36
24 23 21 19 11 8 7 7 7 6 11 21 20 13 8 8 8 9 10 13 14 16 18 20 23 24 20 19 17 6 4 1 9 10 11 9 11 15 23 23 25 34 38
19 17 18 16 9 8 8 8 8 17 23 21 15 11 8 7 6 7 10 12 15 16 15 15 16 16 19 23 23 20 14 12 3 2 9 11 13 15 14 19 22 33 37
16 15 12 8 8 7 5 6 16 22 18 12 12 10 6 2 2 6 12 15 16 15 16 14 13 12 11 12 12 15 17 20 21 20 16 9 7 12 21 23 26 26 23
10 8 6 7 7 5 6 16 21 20 14 11 8 5 3 3 6 12 16 18 20 22 22 21 19 16 14 12 11 11 11 12 13 14 16 19 21 25 18 12 16 24 30
7 6 6 9 8 7 12 17 12 11 9 7 4 5 9 10 12 15 18 21 23 24 24 23 22 21 20 18 17 17 17 18 17 18 19 19 19 18 19 23 27 31 25
6 6 10 12 10 11 14 10 10 7 5 5 7 11 15 17 19 20 22 25 26 26 25 23 22 20 20 20 20 20 20 20 22 22 23 23 24 25 25 25 26 28 29

GFSMW_500_spd_132.txt.gz
Wind_Speed
47 48 49 51 51 51 52 54 55 57 59 61 62 64 66 68 69 67 67 67 68 69 71 71 71 71 73 71 70 65 64 59 54 57 51 44 48 46 40 43 45 43 49
48 50 51 52 53 54 56 57 59 60 61 63 66 67 68 69 69 70 68 63 60 63 67 70 73 74 73 75 73 71 66 65 58 58 55 52 48 51 47 47 50 51 50
52 53 54 55 55 54 55 57 58 60 61 62 60 58 58 58 59 63 64 60 58 57 64 66 68 70 71 71 71 70 67 64 60 59 58 53 54 51 49 46 49 47 50
52 51 51 53 55 55 54 54 56 55 56 55 53 53 54 53 53 53 55 58 60 59 57 64 69 67 66 67 67 67 67 63 59 60 63 58 55 54 53 47 48 43 36
48 49 50 51 51 52 52 53 53 53 52 51 48 46 48 49 49 49 51 53 55 55 61 60 65 67 67 67 64 64 65 68 63 59 63 64 58 57 57 59 53 50 46
45 45 45 43 44 45 46 47 47 49 48 47 46 47 47 46 48 47 48 49 50 53 56 55 54 58 63 64 61 64 57 61 64 62 61 62 64 62 59 60 59 56 49
40 39 40 41 43 44 46 46 49 48 45 43 44 46 44 44 49 49 44 41 44 45 48 50 49 50 53 51 50 49 49 50 47 45 52 63 60 60 61 58 53 54 51
38 39 42 43 44 45 47 50 49 49 44 40 41 42 40 42 40 41 43 39 40 41 38 40 47 49 45 50 47 41 47 51 50 50 49 50 59 61 61 59 58 54 51
39 41 41 43 45 46 46 45 45 45 42 41 39 39 37 40 34 27 30 32 34 36 39 43 45 42 40 43 44 44 45 47 51 51 51 49 51 56 62 62 60 57 57
39 39 39 42 46 46 46 43 42 41 41 41 42 43 38 40 43 43 41 34 32 34 33 34 42 42 42 47 46 47 48 48 49 52 53 51 50 53 57 59 61 60 58
39 40 42 44 47 44 43 44 42 41 41 41 39 41 41 41 41 39 37 38 37 37 36 34 38 45 47 47 52 52 53 54 55 51 52 61 59 56 57 58 57 58 57
39 41 44 45 46 40 39 40 41 40 39 40 39 38 39 40 41 38 36 35 40 41 42 43 43 45 48 52 56 55 49 49 50 49 47 48 54 60 59 60 58 55 53
44 45 46 47 44 38 38 38 39 38 37 36 36 35 32 33 36 33 33 34 37 41 42 46 47 47 47 46 45 46 49 51 52 52 52 51 50 52 59 62 58 56 54
45 47 47 45 38 37 38 40 39 34 31 31 30 28 27 27 28 29 29 29 31 31 34 37 40 43 45 48 51 50 52 54 54 57 58 57 53 50 54 58 61 57 55
45 47 44 40 38 39 40 40 38 38 35 33 31 30 28 26 26 28 29 31 33 33 36 38 39 42 43 40 39 43 44 43 45 46 49 59 56 54 52 54 59 59 55
45 42 39 37 38 40 42 42 40 39 37 34 31 29 29 27 26 26 27 26 24 24 26 28 32 34 32 33 33 34 35 38 41 43 42 41 56 57 53 51 51 55 55
39 37 38 40 41 40 39 38 36 35 34 32 31 29 27 25 24 22 19 18 23 23 24 22 21 20 17 23 27 29 28 27 27 31 38 35 37 52 53 49 48 50 50
37 37 36 36 35 33 32 32 33 33 31 28 30 29 26 22 19 19 18 20 22 19 22 17 13 8 6 11 12 10 10 14 17 18 20 20 25 35 51 51 49 50 50
34 31 29 28 29 31 32 32 33 32 31 28 29 25 21 21 24 21 16 11 9 6 8 9 6 7 6 10 13 13 19 17 12 6 27 29 20 19 29 42 51 54 54
27 29 31 30 28 28 27 25 24 25 22 18 19 19 20 25 22 17 10 3 3 7 11 15 15 15 18 22 21 20 10 14 18 19 12 3 18 30 31 32 31 35 43
29 29 30 27 23 24 23 22 22 18 16 15 12 18 22 20 11 8 8 7 6 7 10 10 13 16 18 21 23 24 27 24 22 20 21 15 6 10 19 22 32 30 30
26 29 27 22 20 20 21 18 16 16 14 11 17 24 13 12 9 8 8 8 9 10 10 9 10 12 13 14 15 17 19 21 23 24 22 20 13 8 6 10 24 29 32
27 23 18 18 19 17 14 14 14 11 6 14 19 12 11 7 6 6 7 8 11 12 12 13 15 17 18 18 17 17 16 18 17 18 19 20 18 18 16 15 7 4 9
17 14 15 17 14 12 12 12 10 2 12 19 14 10 5 6 5 5 8 12 13 14 16 17 18 21 24 24 25 25 24 25 25 25 24 23 21 20 19 18 18 19 20
14 15 14 13 11 10 8 8 2 7 19 14 9 6 2 4 6 10 12 14 16 17 17 16 18 20 22 24 25 26 27 28 29 28 28 28 27 25 23 22 22 22 22
14 15 12 11 9 8 8 6 6 13 9 6 4 3 4 9 11 14 18 17 18 18 18 19 21 22 24 26 28 29 31 31 32 32 32 32 31 31 30 30 30 30 30